| time (UTC) | temp C | wind direction | speed KPH | gust KPH | rain 1hr cm | rain 24hr cm | rain mn cm | humidity % | barometer mb |
| 20260506051034 | 21 | 187 | 6.4 | 11.3 | 0.00 | 0.00 | 0.00 | 68 | 1015.0 |
| 20260506050532 | 21 | 192 | 8.0 | 9.7 | 0.00 | 0.00 | 0.00 | 68 | 1015.0 |
| 20260506045023 | 22 | 195 | 6.4 | 6.4 | 0.00 | 0.00 | 0.00 | 68 | 1015.1 |
| 20260506044521 | 21 | 199 | 4.8 | 9.7 | 0.00 | 0.00 | 0.00 | 66 | 1015.2 |
| 20260506044017 | 22 | 248 | 3.2 | 11.3 | 0.00 | 0.00 | 0.00 | 66 | 1015.2 |
| 20260506043514 | 22 | 196 | 6.4 | 9.7 | 0.00 | 0.00 | 0.00 | 67 | 1015.3 |
| 20260506043013 | 22 | 190 | 8.0 | 11.3 | 0.00 | 0.00 | 0.00 | 66 | 1015.1 |
| 20260506042512 | 22 | 181 | 6.4 | 11.3 | 0.00 | 0.00 | 0.00 | 67 | 1015.1 |
| 20260506042009 | 22 | 186 | 8.0 | 11.3 | 0.00 | 0.00 | 0.00 | 68 | 1015.2 |
| 20260506041508 | 22 | 184 | 8.0 | 9.7 | 0.00 | 0.00 | 0.00 | 66 | 1015.0 |
| 20260506041004 | 22 | 186 | 9.7 | 11.3 | 0.00 | 0.00 | 0.00 | 65 | 1015.2 |
| 20260506040502 | 22 | 181 | 9.7 | 11.3 | 0.00 | 0.00 | 0.00 | 66 | 1015.2 |
| 20260506035957 | 22 | 188 | 8.0 | 11.3 | 0.00 | 0.00 | 0.00 | 67 | 1015.1 |
| 20260506035455 | 22 | 184 | 9.7 | 11.3 | 0.00 | 0.00 | 0.00 | 66 | 1015.2 |
| 20260506034951 | 22 | 188 | 9.7 | 14.5 | 0.00 | 0.00 | 0.00 | 65 | 1015.1 |
| 20260506034449 | 22 | 201 | 8.0 | 11.3 | 0.00 | 0.00 | 0.00 | 67 | 1015.1 |
| 20260506033946 | 22 | 186 | 9.7 | 11.3 | 0.00 | 0.00 | 0.00 | 63 | 1015.3 |
| 20260506033443 | 22 | 188 | 6.4 | 9.7 | 0.00 | 0.00 | 0.00 | 62 | 1015.5 |
| 20260506032939 | 22 | 215 | 3.2 | 9.7 | 0.00 | 0.00 | 0.00 | 63 | 1015.8 |
| 20260506032437 | 22 | 189 | 4.8 | 9.7 | 0.00 | 0.00 | 0.00 | 65 | 1015.5 |
| 20260506031933 | 22 | 180 | 9.7 | 11.3 | 0.00 | 0.00 | 0.00 | 68 | 1015.6 |
| 20260506031431 | 22 | 217 | 8.0 | 11.3 | 0.00 | 0.00 | 0.00 | 66 | 1015.3 |
| 20260506030929 | 22 | 199 | 8.0 | 11.3 | 0.00 | 0.00 | 0.00 | 64 | 1015.5 |
| 20260506030426 | 22 | 175 | 9.7 | 11.3 | 0.00 | 0.00 | 0.00 | 64 | 1015.2 |
| 20260506025923 | 22 | 184 | 6.4 | 6.4 | 0.00 | 0.00 | 0.00 | 65 | 1015.3 |
| 20260506025420 | 22 | 191 | 8.0 | 9.7 | 0.00 | 0.00 | 0.00 | 66 | 1015.6 |
| 20260506024916 | 22 | 233 | 1.6 | 6.4 | 0.00 | 0.00 | 0.00 | 60 | 1015.9 |
| 20260506024414 | 22 | 199 | 6.4 | 9.7 | 0.00 | 0.00 | 0.00 | 60 | 1015.8 |
| 20260506023909 | 22 | 201 | 6.4 | 9.7 | 0.00 | 0.00 | 0.00 | 60 | 1015.8 |
| 20260506023407 | 22 | 194 | 8.0 | 11.3 | 0.00 | 0.00 | 0.00 | 60 | 1015.8 |
| 20260506022903 | 22 | 192 | 3.2 | 11.3 | 0.00 | 0.00 | 0.00 | 61 | 1015.6 |
| 20260506022401 | 22 | 189 | 9.7 | 11.3 | 0.00 | 0.00 | 0.00 | 61 | 1015.1 |
| 20260506021859 | 22 | 197 | 11.3 | 12.9 | 0.00 | 0.00 | 0.00 | 62 | 1015.1 |
| 20260506021355 | 22 | 199 | 8.0 | 11.3 | 0.00 | 0.00 | 0.00 | 64 | 1015.0 |
| 20260506020852 | 22 | 203 | 4.8 | 11.3 | 0.00 | 0.00 | 0.00 | 61 | 1015.0 |
| 20260506020350 | 22 | 203 | 6.4 | 6.4 | 0.00 | 0.00 | 0.00 | 62 | 1015.1 |
| 20260506015847 | 22 | 187 | 9.7 | 11.3 | 0.00 | 0.00 | 0.00 | 61 | 1014.8 |
| 20260506015345 | 22 | 215 | 6.4 | 11.3 | 0.00 | 0.00 | 0.00 | 62 | 1014.9 |
| 20260506014841 | 22 | 187 | 9.7 | 11.3 | 0.00 | 0.00 | 0.00 | 62 | 1015.0 |
| 20260506014338 | 22 | 214 | 3.2 | 9.7 | 0.00 | 0.00 | 0.00 | 63 | 1014.8 |
| 20260506013835 | 22 | 201 | 4.8 | 9.7 | 0.00 | 0.00 | 0.00 | 63 | 1014.8 |
| 20260506013332 | 22 | 192 | 6.4 | 11.3 | 0.00 | 0.00 | 0.00 | 66 | 1014.7 |
| 20260506012829 | 22 | 184 | 8.0 | 9.7 | 0.00 | 0.00 | 0.00 | 66 | 1014.9 |
| 20260506012326 | 22 | 186 | 8.0 | 11.3 | 0.00 | 0.00 | 0.00 | 62 | 1014.8 |
| 20260506011823 | 22 | 186 | 8.0 | 11.3 | 0.00 | 0.00 | 0.00 | 62 | 1014.7 |
| 20260506011319 | 22 | 193 | 6.4 | 11.3 | 0.00 | 0.00 | 0.00 | 61 | 1014.6 |
| 20260506010817 | 22 | 197 | 6.4 | 12.9 | 0.00 | 0.00 | 0.00 | 64 | 1014.6 |
| 20260506010315 | 22 | 187 | 9.7 | 11.3 | 0.00 | 0.00 | 0.00 | 64 | 1014.7 |
| 20260506005811 | 22 | 188 | 9.7 | 12.9 | 0.00 | 0.00 | 0.00 | 65 | 1014.4 |
| 20260506005308 | 22 | 179 | 11.3 | 12.9 | 0.00 | 0.00 | 0.00 | 61 | 1014.5 |
| 20260506004805 | 22 | 182 | 9.7 | 14.5 | 0.00 | 0.00 | 0.00 | 62 | 1014.4 |
| 20260506004302 | 22 | 177 | 11.3 | 11.3 | 0.00 | 0.00 | 0.00 | 63 | 1014.4 |
| 20260506003758 | 22 | 176 | 9.7 | 11.3 | 0.00 | 0.00 | 0.00 | 62 | 1014.5 |
| 20260506003254 | 22 | 182 | 8.0 | 9.7 | 0.00 | 0.00 | 0.00 | 61 | 1014.5 |
| 20260506002751 | 22 | 182 | 6.4 | 6.4 | 0.00 | 0.00 | 0.00 | 66 | 1014.4 |
| 20260506002247 | 22 | 188 | 6.4 | 9.7 | 0.00 | 0.00 | 0.00 | 64 | 1014.6 |
| 20260506001743 | 22 | 193 | 3.2 | 9.7 | 0.00 | 0.00 | 0.00 | 60 | 1014.9 |
| 20260506001241 | 22 | 198 | 6.4 | 6.4 | 0.00 | 0.00 | 0.00 | 60 | 1014.7 |
| 20260506000737 | 22 | 206 | 1.6 | 6.4 | 0.00 | 0.00 | 0.00 | 57 | 1015.1 |
| 20260506000235 | 21 | 198 | 0.0 | 3.2 | 0.00 | 0.00 | 0.00 | 60 | 1014.9 |
| 20260505235732 | 21 | 180 | 1.6 | 3.2 | 0.00 | 0.00 | 0.00 | 62 | 1014.9 |
| 20260505235230 | 21 | 301 | 0.0 | 1.6 | 0.00 | 0.00 | 0.00 | 62 | 1014.9 |
| 20260505234726 | 21 | 338 | 0.0 | 4.8 | 0.00 | 0.00 | 0.00 | 62 | 1014.8 |
| 20260505234224 | 21 | 219 | 0.0 | 1.6 | 0.00 | 0.00 | 0.00 | 64 | 1014.8 |
| 20260505233720 | 22 | 16 | 0.0 | 1.6 | 0.00 | 0.00 | 0.00 | 60 | 1014.7 |
| 20260505233218 | 22 | 162 | 0.0 | 4.8 | 0.00 | 0.00 | 0.00 | 61 | 1015.0 |
| 20260505232715 | 22 | 267 | 1.6 | 3.2 | 0.00 | 0.00 | 0.00 | 60 | 1014.8 |
| 20260505232212 | 22 | 171 | 0.0 | 1.6 | 0.00 | 0.00 | 0.00 | 58 | 1014.9 |
| 20260505231709 | 22 | 324 | 0.0 | 1.6 | 0.00 | 0.00 | 0.00 | 59 | 1014.8 |
| 20260505231208 | 22 | 194 | 0.0 | 6.4 | 0.00 | 0.00 | 0.00 | 57 | 1014.8 |
| 20260505230706 | 22 | 195 | 6.4 | 9.7 | 0.00 | 0.00 | 0.00 | 56 | 1015.0 |
| 20260505230202 | 22 | 203 | 4.8 | 9.7 | 0.00 | 0.00 | 0.00 | 56 | 1014.8 |
| 20260505225658 | 22 | 187 | 1.6 | 4.8 | 0.00 | 0.00 | 0.00 | 60 | 1014.8 |
| 20260505225155 | 22 | 193 | 4.8 | 6.4 | 0.00 | 0.00 | 0.00 | 60 | 1014.6 |
| 20260505224651 | 22 | 187 | 8.0 | 9.7 | 0.00 | 0.00 | 0.00 | 63 | 1014.4 |
| 20260505224149 | 22 | 194 | 4.8 | 6.4 | 0.00 | 0.00 | 0.00 | 56 | 1014.6 |
| 20260505223646 | 22 | 195 | 0.0 | 6.4 | 0.00 | 0.00 | 0.00 | 57 | 1015.0 |
| 20260505223142 | 22 | 100 | 0.0 | 3.2 | 0.00 | 0.00 | 0.00 | 59 | 1014.9 |
| 20260505222638 | 22 | 221 | 1.6 | 4.8 | 0.00 | 0.00 | 0.00 | 58 | 1015.0 |
| 20260505222135 | 22 | 192 | 4.8 | 6.4 | 0.00 | 0.00 | 0.00 | 56 | 1014.8 |
| 20260505221632 | 22 | 208 | 4.8 | 6.4 | 0.00 | 0.00 | 0.00 | 57 | 1014.8 |
| 20260505221128 | 22 | 200 | 6.4 | 6.4 | 0.00 | 0.00 | 0.00 | 52 | 1015.0 |
| 20260505220626 | 23 | 179 | 6.4 | 6.4 | 0.00 | 0.00 | 0.00 | 56 | 1015.2 |
| 20260505220123 | 23 | 189 | 8.0 | 11.3 | 0.00 | 0.00 | 0.00 | 57 | 1014.9 |
| 20260505215621 | 23 | 189 | 9.7 | 12.9 | 0.00 | 0.00 | 0.00 | 58 | 1014.8 |
| 20260505215119 | 23 | 172 | 8.0 | 14.5 | 0.00 | 0.00 | 0.00 | 47 | 1015.0 |
| 20260505214617 | 23 | 173 | 8.0 | 11.3 | 0.00 | 0.00 | 0.00 | 56 | 1014.8 |
| 20260505214113 | 23 | 179 | 8.0 | 12.9 | 0.00 | 0.00 | 0.00 | 60 | 1014.9 |
| 20260505213611 | 23 | 185 | 9.7 | 14.5 | 0.00 | 0.00 | 0.00 | 57 | 1014.8 |
| 20260505213107 | 23 | 178 | 9.7 | 12.9 | 0.00 | 0.00 | 0.00 | 60 | 1015.0 |
| 20260505212603 | 23 | 192 | 12.9 | 17.7 | 0.00 | 0.00 | 0.00 | 57 | 1015.2 |
| 20260505212102 | 23 | 180 | 14.5 | 17.7 | 0.00 | 0.00 | 0.00 | 56 | 1015.3 |
| 20260505211558 | 23 | 204 | 14.5 | 16.1 | 0.00 | 0.00 | 0.00 | 55 | 1015.0 |
| 20260505211055 | 23 | 175 | 14.5 | 17.7 | 0.00 | 0.00 | 0.00 | 54 | 1015.4 |
| 20260505210552 | 23 | 192 | 9.7 | 16.1 | 0.00 | 0.00 | 0.00 | 56 | 1015.6 |
| 20260505210049 | 24 | 191 | 16.1 | 16.1 | 0.00 | 0.00 | 0.00 | 58 | 1015.4 |
| 20260505205546 | 24 | 176 | 17.7 | 20.9 | 0.00 | 0.00 | 0.00 | 55 | 1015.5 |
| 20260505205044 | 24 | 177 | 12.9 | 17.7 | 0.00 | 0.00 | 0.00 | 52 | 1015.1 |
| 20260505204541 | 24 | 180 | 16.1 | 22.5 | 0.00 | 0.00 | 0.00 | 49 | 1015.2 |
| 20260505204038 | 24 | 174 | 16.1 | 22.5 | 0.00 | 0.00 | 0.00 | 49 | 1015.2 |
| 20260505203535 | 24 | 181 | 17.7 | 17.7 | 0.00 | 0.00 | 0.00 | 51 | 1015.4 |
| 20260505203032 | 24 | 179 | 14.5 | 14.5 | 0.00 | 0.00 | 0.00 | 55 | 1015.5 |
| 20260505202528 | 24 | 177 | 12.9 | 22.5 | 0.00 | 0.00 | 0.00 | 56 | 1015.6 |
| 20260505202024 | 24 | 243 | 8.0 | 12.9 | 0.00 | 0.00 | 0.00 | 53 | 1015.5 |
| 20260505201521 | 24 | 191 | 9.7 | 20.9 | 0.00 | 0.00 | 0.00 | 55 | 1015.6 |
| 20260505201018 | 24 | 187 | 16.1 | 20.9 | 0.00 | 0.00 | 0.00 | 57 | 1015.8 |
| 20260505200517 | 24 | 200 | 17.7 | 20.9 | 0.00 | 0.00 | 0.00 | 55 | 1016.0 |
| 20260505200013 | 24 | 190 | 8.0 | 14.5 | 0.00 | 0.00 | 0.00 | 51 | 1015.9 |
| 20260505195509 | 24 | 188 | 20.9 | 24.1 | 0.00 | 0.00 | 0.00 | 55 | 1015.9 |
| 20260505195007 | 25 | 169 | 14.5 | 22.5 | 0.00 | 0.00 | 0.00 | 52 | 1015.9 |
| 20260505194504 | 24 | 185 | 14.5 | 22.5 | 0.00 | 0.00 | 0.00 | 55 | 1015.8 |
| 20260505194004 | 24 | 185 | 17.7 | 22.5 | 0.00 | 0.00 | 0.00 | 53 | 1015.9 |
| 20260505193502 | 24 | 185 | 16.1 | 17.7 | 0.00 | 0.00 | 0.00 | 54 | 1016.3 |
| 20260505192959 | 24 | 188 | 20.9 | 24.1 | 0.00 | 0.00 | 0.00 | 52 | 1016.3 |
| 20260505192457 | 25 | 171 | 19.3 | 24.1 | 0.00 | 0.00 | 0.00 | 50 | 1016.3 |
| 20260505191954 | 24 | 232 | 6.4 | 14.5 | 0.00 | 0.00 | 0.00 | 50 | 1016.3 |
| 20260505191453 | 24 | 180 | 17.7 | 22.5 | 0.00 | 0.00 | 0.00 | 50 | 1016.4 |
| 20260505190950 | 24 | 194 | 12.9 | 20.9 | 0.00 | 0.00 | 0.00 | 52 | 1016.2 |
| 20260505190444 | 24 | 194 | 14.5 | 16.1 | 0.00 | 0.00 | 0.00 | 48 | 1016.3 |
| 20260505185940 | 24 | 187 | 14.5 | 17.7 | 0.00 | 0.00 | 0.00 | 48 | 1016.1 |
| 20260505185438 | 24 | 181 | 17.7 | 22.5 | 0.00 | 0.00 | 0.00 | 53 | 1016.3 |
| 20260505184934 | 24 | 161 | 16.1 | 17.7 | 0.00 | 0.00 | 0.00 | 46 | 1016.3 |
| 20260505184431 | 24 | 188 | 19.3 | 22.5 | 0.00 | 0.00 | 0.00 | 51 | 1016.5 |
| 20260505183927 | 23 | 184 | 14.5 | 17.7 | 0.00 | 0.00 | 0.00 | 53 | 1016.6 |
| 20260505183425 | 24 | 192 | 17.7 | 20.9 | 0.00 | 0.00 | 0.00 | 55 | 1016.6 |
| 20260505182921 | 24 | 175 | 16.1 | 22.5 | 0.00 | 0.00 | 0.00 | 53 | 1016.3 |
| 20260505182418 | 24 | 162 | 12.9 | 20.9 | 0.00 | 0.00 | 0.00 | 53 | 1016.7 |
| 20260505181914 | 23 | 168 | 17.7 | 17.7 | 0.00 | 0.00 | 0.00 | 49 | 1016.8 |
| 20260505181412 | 24 | 200 | 11.3 | 16.1 | 0.00 | 0.00 | 0.00 | 55 | 1017.1 |
| 20260505180908 | 24 | 173 | 16.1 | 17.7 | 0.00 | 0.00 | 0.00 | 54 | 1017.1 |
| 20260505180405 | 23 | 179 | 14.5 | 16.1 | 0.00 | 0.00 | 0.00 | 57 | 1017.1 |
| 20260505175902 | 24 | 179 | 14.5 | 24.1 | 0.00 | 0.00 | 0.00 | 60 | 1017.1 |
| 20260505175358 | 23 | 169 | 12.9 | 16.1 | 0.00 | 0.00 | 0.00 | 51 | 1017.1 |
| 20260505174854 | 23 | 160 | 14.5 | 17.7 | 0.00 | 0.00 | 0.00 | 51 | 1017.1 |
| 20260505174352 | 23 | 173 | 14.5 | 16.1 | 0.00 | 0.00 | 0.00 | 53 | 1017.2 |
| 20260505173848 | 23 | 163 | 8.0 | 14.5 | 0.00 | 0.00 | 0.00 | 51 | 1017.4 |
| 20260505173344 | 23 | 190 | 16.1 | 17.7 | 0.00 | 0.00 | 0.00 | 56 | 1017.1 |
| 20260505172842 | 23 | 191 | 11.3 | 14.5 | 0.00 | 0.00 | 0.00 | 57 | 1017.3 |
| 20260505172339 | 23 | 183 | 9.7 | 14.5 | 0.00 | 0.00 | 0.00 | 57 | 1017.4 |
| 20260505171839 | 23 | 174 | 8.0 | 12.9 | 0.00 | 0.00 | 0.00 | 55 | 1017.6 |
| 20260505171336 | 23 | 179 | 11.3 | 12.9 | 0.00 | 0.00 | 0.00 | 56 | 1017.8 |
| 20260505170832 | 23 | 188 | 14.5 | 16.1 | 0.00 | 0.00 | 0.00 | 60 | 1017.8 |
| 20260505170329 | 23 | 174 | 6.4 | 11.3 | 0.00 | 0.00 | 0.00 | 57 | 1018.0 |
| 20260505165825 | 23 | 195 | 9.7 | 14.5 | 0.00 | 0.00 | 0.00 | 56 | 1018.2 |
| 20260505165320 | 23 | 178 | 9.7 | 16.1 | 0.00 | 0.00 | 0.00 | 58 | 1018.1 |
| 20260505164816 | 23 | 182 | 8.0 | 11.3 | 0.00 | 0.00 | 0.00 | 57 | 1018.1 |
| 20260505164314 | 23 | 184 | 12.9 | 17.7 | 0.00 | 0.00 | 0.00 | 56 | 1018.0 |
| 20260505163812 | 23 | 189 | 16.1 | 17.7 | 0.00 | 0.00 | 0.00 | 58 | 1018.1 |
| 20260505163310 | 23 | 193 | 14.5 | 16.1 | 0.00 | 0.00 | 0.00 | 58 | 1018.3 |
| 20260505162808 | 23 | 193 | 12.9 | 14.5 | 0.00 | 0.00 | 0.00 | 61 | 1018.3 |
| 20260505162306 | 23 | 190 | 6.4 | 6.4 | 0.00 | 0.00 | 0.00 | 58 | 1018.1 |
| 20260505161801 | 23 | 171 | 6.4 | 6.4 | 0.00 | 0.00 | 0.00 | 61 | 1018.0 |
| 20260505161258 | 22 | 181 | 6.4 | 9.7 | 0.00 | 0.00 | 0.00 | 60 | 1018.2 |
| 20260505160755 | 22 | 196 | 3.2 | 6.4 | 0.00 | 0.00 | 0.00 | 61 | 1018.3 |
| 20260505160253 | 22 | 162 | 6.4 | 9.7 | 0.00 | 0.00 | 0.00 | 62 | 1018.3 |
| 20260505153232 | 21 | 185 | 6.4 | 6.4 | 0.00 | 0.00 | 0.00 | 64 | 1018.8 |
| 20260505152729 | 22 | 192 | 6.4 | 6.4 | 0.00 | 0.00 | 0.00 | 65 | 1018.7 |
| 20260505152226 | 21 | 179 | 6.4 | 6.4 | 0.00 | 0.00 | 0.00 | 64 | 1018.7 |
| 20260505151725 | 21 | 181 | 6.4 | 9.7 | 0.00 | 0.00 | 0.00 | 66 | 1018.5 |
| 20260505151223 | 21 | 190 | 6.4 | 11.3 | 0.00 | 0.00 | 0.00 | 65 | 1018.8 |
| 20260505150720 | 21 | 184 | 8.0 | 9.7 | 0.00 | 0.00 | 0.00 | 67 | 1018.5 |
| 20260505150218 | 21 | 187 | 4.8 | 9.7 | 0.00 | 0.00 | 0.00 | 66 | 1018.5 |
| 20260505140650 | 19 | 173 | 4.8 | 6.4 | 0.00 | 0.00 | 0.00 | 68 | 1018.7 |
| 20260505140148 | 19 | 185 | 4.8 | 9.7 | 0.00 | 0.00 | 0.00 | 67 | 1018.4 |
| 20260505130111 | 17 | 174 | 3.2 | 4.8 | 0.00 | 0.00 | 0.00 | 74 | 1018.9 |
| 20260505124601 | 16 | 168 | 1.6 | 1.6 | 0.00 | 0.00 | 0.00 | 86 | 1018.3 |
| 20260505124057 | 15 | 306 | 1.6 | 1.6 | 0.00 | 0.00 | 0.00 | 87 | 1018.3 |
| 20260505123553 | 15 | 294 | 1.6 | 3.2 | 0.00 | 0.00 | 0.00 | 85 | 1018.3 |
| 20260505123050 | 15 | 288 | 1.6 | 4.8 | 0.00 | 0.00 | 0.00 | 84 | 1018.1 |
| 20260505122547 | 15 | 317 | 1.6 | 3.2 | 0.00 | 0.00 | 0.00 | 83 | 1018.0 |
| 20260505122044 | 15 | 170 | 0.0 | 0.0 | 0.00 | 0.00 | 0.00 | 83 | 1017.8 |
| 20260505121540 | 16 | 295 | 1.6 | 3.2 | 0.00 | 0.00 | 0.00 | 83 | 1017.9 |
| 20260505121037 | 15 | 152 | 0.0 | 0.0 | 0.00 | 0.00 | 0.00 | 88 | 1017.8 |
| 20260505120534 | 14 | 290 | 1.6 | 1.6 | 0.00 | 0.00 | 0.00 | 88 | 1018.0 |
| 20260505120029 | 13 | 263 | 0.0 | 1.6 | 0.00 | 0.00 | 0.00 | 88 | 1017.9 |
| 20260505115524 | 13 | 296 | 3.2 | 3.2 | 0.00 | 0.00 | 0.00 | 89 | 1017.7 |
| 20260505115022 | 12 | 299 | 3.2 | 3.2 | 0.00 | 0.00 | 0.00 | 89 | 1018.0 |
| 20260505114519 | 12 | 312 | 1.6 | 3.2 | 0.00 | 0.00 | 0.00 | 90 | 1017.7 |
| 20260505114015 | 12 | 306 | 3.2 | 3.2 | 0.00 | 0.00 | 0.00 | 91 | 1017.7 |
| 20260505113512 | 12 | 289 | 3.2 | 4.8 | 0.00 | 0.00 | 0.00 | 91 | 1017.6 |
| 20260505113008 | 12 | 295 | 3.2 | 4.8 | 0.00 | 0.00 | 0.00 | 91 | 1017.4 |
| 20260505112504 | 11 | 304 | 3.2 | 4.8 | 0.00 | 0.00 | 0.00 | 91 | 1017.5 |
| 20260505112002 | 11 | 296 | 3.2 | 4.8 | 0.00 | 0.00 | 0.00 | 91 | 1017.4 |
| 20260505111456 | 11 | 298 | 4.8 | 4.8 | 0.00 | 0.00 | 0.00 | 91 | 1017.3 |
| 20260505110952 | 11 | 298 | 4.8 | 4.8 | 0.00 | 0.00 | 0.00 | 91 | 1017.4 |
| 20260505110449 | 11 | 293 | 3.2 | 4.8 | 0.00 | 0.00 | 0.00 | 91 | 1017.4 |
| 20260505101921 | 12 | 299 | 3.2 | 3.2 | 0.00 | 0.00 | 0.00 | 90 | 1016.7 |
| 20260505101421 | 11 | 296 | 3.2 | 4.8 | 0.00 | 0.00 | 0.00 | 90 | 1016.9 |
| 20260505100916 | 12 | 303 | 3.2 | 3.2 | 0.00 | 0.00 | 0.00 | 90 | 1016.7 |
| 20260505100413 | 12 | 293 | 3.2 | 3.2 | 0.00 | 0.00 | 0.00 | 89 | 1016.7 |
| 20260505095909 | 12 | 303 | 3.2 | 3.2 | 0.00 | 0.00 | 0.00 | 89 | 1016.4 |
| 20260505095406 | 12 | 292 | 3.2 | 3.2 | 0.00 | 0.00 | 0.00 | 89 | 1016.4 |
| 20260505094902 | 12 | 297 | 3.2 | 3.2 | 0.00 | 0.00 | 0.00 | 90 | 1016.7 |
| 20260505094400 | 12 | 303 | 1.6 | 3.2 | 0.00 | 0.00 | 0.00 | 89 | 1016.3 |
| 20260505093855 | 12 | 292 | 1.6 | 3.2 | 0.00 | 0.00 | 0.00 | 89 | 1016.6 |
| 20260505093353 | 12 | 304 | 1.6 | 3.2 | 0.00 | 0.00 | 0.00 | 90 | 1016.6 |
| 20260505092850 | 12 | 292 | 3.2 | 3.2 | 0.00 | 0.00 | 0.00 | 90 | 1016.7 |
| 20260505092348 | 12 | 293 | 1.6 | 3.2 | 0.00 | 0.00 | 0.00 | 90 | 1016.8 |
| 20260505091845 | 12 | 235 | 0.0 | 3.2 | 0.00 | 0.00 | 0.00 | 90 | 1016.7 |
| 20260505091343 | 12 | 277 | 1.6 | 3.2 | 0.00 | 0.00 | 0.00 | 90 | 1017.0 |
| 20260505090841 | 11 | 289 | 3.2 | 3.2 | 0.00 | 0.00 | 0.00 | 90 | 1016.7 |
| 20260505090339 | 11 | 294 | 3.2 | 3.2 | 0.00 | 0.00 | 0.00 | 89 | 1016.7 |
| 20260505085835 | 11 | 294 | 3.2 | 3.2 | 0.00 | 0.00 | 0.00 | 89 | 1016.8 |
| 20260505085333 | 11 | 301 | 3.2 | 3.2 | 0.00 | 0.00 | 0.00 | 88 | 1016.8 |
| 20260505084831 | 11 | 296 | 3.2 | 4.8 | 0.00 | 0.00 | 0.00 | 88 | 1016.5 |
| 20260505084329 | 11 | 308 | 3.2 | 4.8 | 0.00 | 0.00 | 0.00 | 88 | 1016.6 |
| 20260505083826 | 11 | 302 | 3.2 | 4.8 | 0.00 | 0.00 | 0.00 | 88 | 1016.9 |
| 20260505083324 | 12 | 287 | 3.2 | 4.8 | 0.00 | 0.00 | 0.00 | 88 | 1016.8 |
| 20260505082820 | 11 | 289 | 3.2 | 4.8 | 0.00 | 0.00 | 0.00 | 88 | 1016.7 |
| 20260505082316 | 11 | 307 | 3.2 | 4.8 | 0.00 | 0.00 | 0.00 | 87 | 1016.9 |
| 20260505081813 | 12 | 284 | 3.2 | 4.8 | 0.00 | 0.00 | 0.00 | 87 | 1016.7 |
| 20260505081310 | 12 | 289 | 3.2 | 4.8 | 0.00 | 0.00 | 0.00 | 87 | 1016.9 |
| 20260505080806 | 12 | 283 | 3.2 | 4.8 | 0.00 | 0.00 | 0.00 | 86 | 1017.0 |
| 20260505080302 | 12 | 295 | 4.8 | 4.8 | 0.00 | 0.00 | 0.00 | 86 | 1016.8 |
| 20260505075758 | 12 | 296 | 3.2 | 4.8 | 0.00 | 0.00 | 0.00 | 85 | 1016.9 |
| 20260505075255 | 12 | 286 | 3.2 | 3.2 | 0.00 | 0.00 | 0.00 | 86 | 1016.6 |
| 20260505074752 | 12 | 290 | 3.2 | 4.8 | 0.00 | 0.00 | 0.00 | 85 | 1016.9 |
| 20260505074249 | 12 | 301 | 3.2 | 4.8 | 0.00 | 0.00 | 0.00 | 86 | 1016.8 |
| 20260505073747 | 12 | 304 | 3.2 | 4.8 | 0.00 | 0.00 | 0.00 | 84 | 1016.8 |
| 20260505073245 | 12 | 303 | 3.2 | 3.2 | 0.00 | 0.00 | 0.00 | 83 | 1016.8 |
| 20260505072741 | 12 | 303 | 3.2 | 4.8 | 0.00 | 0.00 | 0.00 | 83 | 1016.6 |
| 20260505072237 | 13 | 315 | 3.2 | 3.2 | 0.00 | 0.00 | 0.00 | 83 | 1016.9 |
| 20260505071733 | 13 | 295 | 3.2 | 3.2 | 0.00 | 0.00 | 0.00 | 84 | 1017.0 |
| 20260505071230 | 13 | 303 | 4.8 | 6.4 | 0.00 | 0.00 | 0.00 | 83 | 1016.9 |
| 20260505070728 | 13 | 293 | 3.2 | 4.8 | 0.00 | 0.00 | 0.00 | 83 | 1016.9 |
| 20260505070224 | 13 | 292 | 3.2 | 3.2 | 0.00 | 0.00 | 0.00 | 83 | 1016.9 |
| 20260505065720 | 13 | 303 | 3.2 | 3.2 | 0.00 | 0.00 | 0.00 | 82 | 1016.9 |
| 20260505065217 | 13 | 295 | 3.2 | 3.2 | 0.00 | 0.00 | 0.00 | 81 | 1016.9 |
| 20260505064714 | 13 | 293 | 1.6 | 4.8 | 0.00 | 0.00 | 0.00 | 81 | 1017.1 |
| 20260505064212 | 13 | 280 | 1.6 | 3.2 | 0.00 | 0.00 | 0.00 | 82 | 1017.1 |
| 20260505063709 | 14 | 26 | 0.0 | 1.6 | 0.00 | 0.00 | 0.00 | 80 | 1017.1 |
| 20260505063205 | 14 | 278 | 1.6 | 3.2 | 0.00 | 0.00 | 0.00 | 80 | 1017.2 |
| 20260505062701 | 14 | 303 | 1.6 | 3.2 | 0.00 | 0.00 | 0.00 | 80 | 1017.2 |
| 20260505062159 | 14 | 275 | 3.2 | 3.2 | 0.00 | 0.00 | 0.00 | 80 | 1016.9 |
| 20260505061656 | 14 | 295 | 3.2 | 3.2 | 0.00 | 0.00 | 0.00 | 79 | 1017.2 |
| 20260505061154 | 14 | 292 | 3.2 | 3.2 | 0.00 | 0.00 | 0.00 | 77 | 1017.0 |
| 20260505060651 | 14 | 253 | 0.0 | 3.2 | 0.00 | 0.00 | 0.00 | 79 | 1017.1 |
| 20260505060147 | 15 | 294 | 1.6 | 4.8 | 0.00 | 0.00 | 0.00 | 76 | 1017.2 |